Campo, CA

12:38 PM PDT on July 26, 2017 (GMT -0700)
Campo

Weather History for KCZZ - February, 2013

Change the Weather History Date:

Wednesday, February 20, 2013

  Actual Average Record
Temperature  
Mean Temperature 40 °F 50 °F  
Max Temperature 45 °F 64 °F 83 °F (1977)
Min Temperature 34 °F 35 °F 14 °F (1953)
Degree Days  
Heating Degree Days 25 15  
Month to date heating degree days 384 316  
Since 1 July heating degree days 1965 1932  
Cooling Degree Days 0 0  
Month to date cooling degree days 0 0  
Year to date cooling degree days 0 0  
Moisture  
Dew Point 30 °F    
Average Humidity 77    
Maximum Humidity 100    
Minimum Humidity 53    
Precipitation  
Precipitation 0.30 in 0.13 in 1.01 in (1980)
Month to date precipitation 0.91 2.27  
Year to date precipitation 2.94 5.25  
Since 1 July precipitation 7.41  
Snow  
Snow 0.00 in - - ()
Month to date snowfall 0.0  
Year to date snowfall 0.0  
Snow Depth 0.00 in    
Sea Level Pressure  
Sea Level Pressure 29.76 in    
Wind  
Wind Speed 15 mph (WSW)    
Max Wind Speed 29 mph    
Max Gust Speed 40 mph    
T = Trace of Precipitation, MM = Missing Value Source: NWS Daily Summary

Daily Weather History Graph

Daily Weather History Graph

Search for Another Location

Airport or City:

Trip Planner

Search our weather history database for the weather conditions in past years. The results will help you decide how hot, cold, wet, or windy it might be!

Date:

Astronomy

Feb. 20, 2013 Rise Set
Actual Time 6:23 AM PST 5:36 PM PST
Civil Twilight 5:58 AM PST 6:01 PM PST
Nautical Twilight 5:29 AM PST 6:29 PM PST
Astronomical Twilight 5:01 AM PST 6:58 PM PST
Moon 1:10 PM PST (2/20) 2:37 AM PST (2/20)
Length of Visible Light 12h 02m
Length of Day
11h 12m
Waxing Gibbous, 77% of the Moon is Illuminated
Feb 20
Waxing Gibbous
Feb 25
Full
Mar 4
Last Quarter
Mar 11
New
Mar 19
First Quarter

Hourly Weather History & Observations

Time (PST) Temp. Windchill Dew Point Humidity Pressure Visibility Wind Dir Wind Speed Gust Speed Precip Events Conditions
12:52 AM 37.9 °F 28.5 °F - N/A% 29.61 in - SW 17.3 mph 21.9 mph 0.09 in   Unknown
1:52 AM 37.9 °F 28.2 °F - N/A% 29.61 in - WSW 18.4 mph 33.4 mph 0.11 in   Unknown
2:52 AM 37.0 °F 28.1 °F - N/A% 29.61 in - West 15.0 mph 27.6 mph 0.06 in   Unknown
3:52 AM 37.0 °F 27.0 °F - N/A% 29.62 in - West 18.4 mph 29.9 mph 0.01 in   Unknown
4:52 AM 37.0 °F 27.0 °F - N/A% 29.64 in - WSW 18.4 mph 24.2 mph N/A   Unknown
5:52 AM 37.0 °F 25.6 °F - N/A% 29.62 in - WSW 24.2 mph 35.7 mph N/A   Unknown
6:52 AM 35.1 °F 25.5 °F - N/A% 29.65 in - WSW 15.0 mph 26.5 mph 0.01 in   Unknown
7:52 AM 36.0 °F 27.1 °F - N/A% 29.66 in - West 13.8 mph 28.8 mph 0.02 in   Unknown
8:52 AM 36.0 °F 26.0 °F - N/A% 29.68 in - West 17.3 mph 24.2 mph 0.02 in   Unknown
9:52 AM 37.9 °F 30.5 °F - N/A% 29.72 in - NW 11.5 mph 21.9 mph N/A   Unknown
10:52 AM 41.0 °F 34.7 °F - N/A% 29.73 in - WNW 10.4 mph 19.6 mph N/A   Unknown
11:52 AM 43.0 °F 36.0 °F 43.0 °F 100% 29.75 in - West 13.8 mph 25.3 mph N/A   Unknown
12:52 PM 42.1 °F 36.6 °F 28.0 °F 58% 29.77 in - West 9.2 mph 18.4 mph N/A   Unknown
1:52 PM 44.1 °F 39.5 °F 28.9 °F 55% 29.76 in - West 8.1 mph 18.4 mph N/A   Unknown
2:52 PM 43.0 °F 37.7 °F 27.0 °F 53% 29.78 in - WSW 9.2 mph 19.6 mph N/A   Unknown
3:52 PM 43.0 °F 35.4 °F 28.9 °F 58% 29.80 in - WSW 16.1 mph 23.0 mph N/A   Unknown
4:52 PM 43.0 °F 36.4 °F 32.0 °F 65% 29.83 in - SW 12.7 mph - N/A   Unknown
5:52 PM 41.0 °F 33.5 °F 32.0 °F 70% 29.86 in - WSW 13.8 mph - N/A   Unknown
6:52 PM 39.0 °F 32.8 °F 28.9 °F 67% 29.90 in - SW 9.2 mph - N/A   Unknown
7:52 PM 34.0 °F 31.0 °F 28.9 °F 82% 29.92 in - South 3.5 mph - N/A   Unknown
8:52 PM 32.0 °F - 28.0 °F 85% 29.93 in - Calm Calm - N/A   Unknown
9:52 PM 30.0 °F - 27.0 °F 88% 29.94 in - Calm Calm - N/A   Unknown
10:52 PM 28.9 °F - 26.1 °F 89% 29.95 in - Calm Calm - N/A   Unknown
11:00 PM - - - N/A% - - North - - N/A   Unknown
11:52 PM 28.9 °F 23.9 °F 26.1 °F 89% 29.96 in - NE 4.6 mph - N/A   Unknown